TimeCST,TemperatureF,Dew PointF,Humidity,Sea Level PressureIn,VisibilityMPH,Wind Direction,Wind SpeedMPH,Gust SpeedMPH,PrecipitationIn,Events,Conditions,WindDirDegrees,DateUTC
12:15 AM,8.6,8.6,100,30.45,10.0,SE,3.5,-,N/A,,Clear,130,2013-11-29 06:15:00
12:35 AM,10.4,10.4,100,30.45,10.0,SE,3.5,-,N/A,,Clear,130,2013-11-29 06:35:00
12:55 AM,10.4,10.4,100,30.44,10.0,Calm,Calm,-,N/A,,Clear,0,2013-11-29 06:55:00
1:15 AM,8.6,8.6,100,30.44,10.0,ESE,3.5,-,N/A,,Clear,120,2013-11-29 07:15:00
1:35 AM,8.6,8.6,100,30.44,10.0,SE,3.5,-,N/A,,Clear,130,2013-11-29 07:35:00
1:55 AM,10.4,10.4,100,30.45,10.0,SE,4.6,-,N/A,,Partly Cloudy,130,2013-11-29 07:55:00
2:15 AM,8.6,8.6,100,30.45,10.0,ESE,4.6,-,N/A,,Clear,120,2013-11-29 08:15:00
2:35 AM,8.6,8.6,100,30.45,10.0,SE,4.6,-,N/A,,Partly Cloudy,140,2013-11-29 08:35:00
2:55 AM,10.4,8.6,92,30.44,10.0,ESE,5.8,-,N/A,,Partly Cloudy,120,2013-11-29 08:55:00
3:15 AM,10.4,10.4,100,30.44,10.0,SE,4.6,-,N/A,,Partly Cloudy,130,2013-11-29 09:15:00
3:35 AM,10.4,10.4,100,30.43,10.0,SE,5.8,-,N/A,,Partly Cloudy,130,2013-11-29 09:35:00
3:55 AM,10.4,10.4,100,30.43,10.0,SE,4.6,-,N/A,,Partly Cloudy,140,2013-11-29 09:55:00
4:15 AM,10.4,10.4,100,30.42,10.0,Calm,Calm,-,N/A,,Partly Cloudy,0,2013-11-29 10:15:00
4:35 AM,10.4,10.4,100,30.42,10.0,SE,3.5,-,N/A,,Partly Cloudy,140,2013-11-29 10:35:00
4:55 AM,12.2,12.2,100,30.41,10.0,SSE,8.1,-,N/A,,Partly Cloudy,150,2013-11-29 10:55:00
5:15 AM,14.0,12.2,93,30.40,10.0,SSE,12.7,-,N/A,,Partly Cloudy,150,2013-11-29 11:15:00
5:35 AM,14.0,12.2,93,30.40,10.0,SSE,11.5,-,N/A,,Partly Cloudy,150,2013-11-29 11:35:00
5:55 AM,14.0,12.2,93,30.39,10.0,SSE,10.4,-,N/A,,Partly Cloudy,160,2013-11-29 11:55:00
6:15 AM,14.0,12.2,93,30.39,10.0,SSE,10.4,-,N/A,,Partly Cloudy,150,2013-11-29 12:15:00
6:35 AM,14.0,12.2,93,30.38,10.0,SSE,11.5,-,N/A,,Partly Cloudy,150,2013-11-29 12:35:00
6:55 AM,14.0,12.2,93,30.38,10.0,SSE,9.2,-,N/A,,Mostly Cloudy,150,2013-11-29 12:55:00
7:15 AM,14.0,12.2,93,30.38,10.0,SSE,11.5,-,N/A,,Scattered Clouds,150,2013-11-29 13:15:00
7:35 AM,15.8,12.2,86,30.37,10.0,SSE,11.5,-,N/A,,Clear,160,2013-11-29 13:35:00
7:55 AM,15.8,14.0,93,30.37,10.0,SSE,11.5,-,N/A,,Clear,160,2013-11-29 13:55:00
8:15 AM,15.8,14.0,93,30.37,10.0,SSE,12.7,-,N/A,,Clear,160,2013-11-29 14:15:00
8:35 AM,17.6,15.8,93,30.37,10.0,SSE,9.2,-,N/A,,Clear,150,2013-11-29 14:35:00
8:55 AM,19.4,19.4,100,30.37,-9999.0,SSE,10.4,-,N/A,,Unknown,160,2013-11-29 14:55:00
9:15 AM,19.4,15.8,86,30.36,10.0,SSE,11.5,-,N/A,,Clear,160,2013-11-29 15:15:00
9:35 AM,21.2,19.4,93,30.36,10.0,South,15.0,-,N/A,,Clear,170,2013-11-29 15:35:00
9:55 AM,24.8,24.8,100,30.36,10.0,South,15.0,21.9,N/A,,Clear,170,2013-11-29 15:55:00
10:15 AM,26.6,26.6,100,30.36,10.0,SSE,16.1,23.0,N/A,,Clear,160,2013-11-29 16:15:00
10:35 AM,26.6,-9999,N/A,30.35,10.0,South,19.6,-,N/A,,Clear,170,2013-11-29 16:35:00
10:55 AM,28.4,-9999,N/A,30.34,10.0,South,18.4,26.5,N/A,,Clear,170,2013-11-29 16:55:00
11:15 AM,28.4,-9999,N/A,30.32,10.0,South,18.4,26.5,N/A,,Clear,170,2013-11-29 17:15:00
11:35 AM,30.2,-9999,N/A,30.31,10.0,South,18.4,27.6,N/A,,Clear,170,2013-11-29 17:35:00
11:55 AM,30.2,-9999,N/A,30.30,10.0,South,13.8,24.2,N/A,,Clear,180,2013-11-29 17:55:00
12:15 PM,32.0,-9999,N/A,30.28,10.0,South,17.3,-,N/A,,Clear,180,2013-11-29 18:15:00
12:35 PM,32.0,30.2,93,30.26,10.0,South,18.4,24.2,N/A,,Clear,180,2013-11-29 18:35:00
12:55 PM,33.8,21.2,60,30.24,10.0,South,20.7,28.8,N/A,,Clear,170,2013-11-29 18:55:00
1:15 PM,35.6,32.0,87,30.23,10.0,South,19.6,-,N/A,,Clear,170,2013-11-29 19:15:00
1:35 PM,33.8,24.8,70,30.22,10.0,South,19.6,25.3,N/A,,Clear,180,2013-11-29 19:35:00
1:55 PM,35.6,26.6,70,30.20,10.0,SSE,16.1,24.2,N/A,,Clear,160,2013-11-29 19:55:00
2:15 PM,37.4,32.0,81,30.19,10.0,South,20.7,-,N/A,,Clear,170,2013-11-29 20:15:00
2:35 PM,39.2,-9999,N/A,30.18,10.0,South,20.7,-,N/A,,Clear,180,2013-11-29 20:35:00
2:55 PM,37.4,-9999,N/A,30.16,10.0,SSE,23.0,-,N/A,,Clear,160,2013-11-29 20:55:00
3:15 PM,37.4,-9999,N/A,30.15,10.0,South,21.9,27.6,N/A,,Clear,170,2013-11-29 21:15:00
3:35 PM,37.4,-9999,N/A,30.15,10.0,South,21.9,28.8,N/A,,Clear,170,2013-11-29 21:35:00
3:55 PM,35.6,35.6,100,30.14,10.0,SSE,19.6,26.5,N/A,,Clear,150,2013-11-29 21:55:00
4:15 PM,33.8,33.8,100,30.13,10.0,SSE,16.1,24.2,N/A,,Clear,150,2013-11-29 22:15:00
4:35 PM,33.8,33.8,100,30.13,10.0,SSE,11.5,-,N/A,,Clear,150,2013-11-29 22:35:00
4:55 PM,32.0,32.0,100,30.12,10.0,SSE,12.7,-,N/A,,Clear,150,2013-11-29 22:55:00
5:15 PM,32.0,23.0,69,30.12,10.0,SSE,11.5,-,N/A,,Clear,150,2013-11-29 23:15:00
5:35 PM,30.2,23.0,75,30.12,10.0,SSE,10.4,-,N/A,,Clear,150,2013-11-29 23:35:00
5:55 PM,32.0,24.8,75,30.11,-9999.0,SSE,11.5,-,N/A,,Clear,160,2013-11-29 23:55:00
6:15 PM,32.0,24.8,75,30.11,10.0,South,13.8,-,N/A,,Clear,170,2013-11-30 00:15:00
6:35 PM,32.0,24.8,75,30.12,10.0,South,11.5,-,N/A,,Clear,170,2013-11-30 00:35:00
6:55 PM,32.0,24.8,75,30.13,10.0,South,10.4,-,N/A,,Clear,170,2013-11-30 00:55:00
7:15 PM,32.0,24.8,75,30.12,10.0,South,11.5,-,N/A,,Clear,170,2013-11-30 01:15:00
7:35 PM,30.2,24.8,80,30.12,10.0,SSE,10.4,-,N/A,,Clear,160,2013-11-30 01:35:00
7:55 PM,30.2,24.8,80,30.12,10.0,SSE,9.2,-,N/A,,Clear,160,2013-11-30 01:55:00
8:15 PM,30.2,24.8,80,30.12,10.0,SSE,10.4,-,N/A,,Clear,160,2013-11-30 02:15:00
8:35 PM,28.4,24.8,86,30.11,10.0,SSE,9.2,-,N/A,,Clear,150,2013-11-30 02:35:00
8:55 PM,28.4,24.8,86,30.11,10.0,SSE,9.2,-,N/A,,Clear,160,2013-11-30 02:55:00
9:15 PM,28.4,26.6,93,30.10,10.0,SSE,11.5,-,N/A,,Clear,160,2013-11-30 03:15:00
9:35 PM,28.4,26.6,93,30.09,10.0,South,11.5,-,N/A,,Clear,170,2013-11-30 03:35:00
9:55 PM,28.4,28.4,100,30.09,10.0,South,9.2,-,N/A,,Clear,170,2013-11-30 03:55:00
10:15 PM,28.4,28.4,100,30.08,10.0,South,11.5,-,N/A,,Clear,170,2013-11-30 04:15:00
10:35 PM,28.4,28.4,100,30.08,10.0,South,11.5,-,N/A,,Clear,170,2013-11-30 04:35:00
10:55 PM,28.4,26.6,93,30.07,10.0,South,11.5,-,N/A,,Clear,170,2013-11-30 04:55:00
11:15 PM,28.4,23.0,80,30.07,10.0,South,9.2,-,N/A,,Clear,170,2013-11-30 05:15:00
11:35 PM,28.4,28.4,100,30.07,10.0,South,6.9,-,N/A,,Clear,170,2013-11-30 05:35:00
11:55 PM,28.4,28.4,100,30.07,10.0,South,9.2,-,N/A,,Clear,170,2013-11-30 05:55:00